[[{"header":{"parameterUnit":"m.s-1","parameterCategory":1,"la1":30.2991,"la2":30.254,"lo1":-89.0895,"lo2":-89.0444,"dy":0.0017,"dx":0.0017,"nx":28,"ny":28,"refTime":"2023-09-29T03:00:00:Z","depth":0,"parameterNumber":2,"parameterNumberName":"U-component_of_WINDS"},"data":[0,0,0,0,0,0,0,0,0,0,0,0,0,0,0,0,0,0,0,0,0,0,0,0,0,0,0,0,0,0,0,0,0,0,0,0,0,0,0,0,0,0,0,0,0,0,0,0,0,0,0,0,0,0,0,0,0,0,-3.8384,-3.8384,0,-3.8419,-3.8419,-3.842,-3.8363,-3.8361,-3.8359,-3.8357,-3.8394,-3.8396,-3.8399,0,0,0,0,0,0,0,0,0,0,0,0,0,-3.8269,-3.8271,-3.8384,-3.8384,-3.8384,-3.8419,-3.8419,-3.842,-3.8363,-3.8361,-3.8358,-3.8356,-3.8393,-3.8396,-3.8399,0,0,0,0,0,0,0,0,0,0,0,0,0,-3.8313,-3.8272,-3.8383,-3.836,-3.8359,-3.8419,-3.8419,-3.842,-3.8364,-3.8361,-3.8358,-3.8355,-3.8392,-3.8396,-3.84,-3.8484,0,0,-3.8413,-3.8415,0,0,0,0,0,0,0,0,-3.8311,-3.8317,-3.8363,-3.8362,-3.836,-3.8383,-3.8392,-3.8441,-3.8364,-3.8362,-3.8357,-3.8354,-3.8393,-3.8397,-3.841,-3.8486,-3.8488,-3.8413,-3.8416,-3.8417,-3.8419,0,0,0,0,0,0,0,-3.8308,-3.8315,-3.8397,-3.8364,-3.8362,-3.8349,-3.8352,-3.8401,-3.8393,-3.8362,-3.8358,-3.8363,-3.8391,-3.8406,-3.841,-3.8488,-3.8413,-3.8417,-3.8419,-3.8421,-3.8639,-3.8642,0,0,0,0,0,0,-3.8307,-3.8313,-3.8396,-3.8398,-3.8328,-3.8353,-3.8357,-3.8379,-3.8392,-3.8392,-3.8365,-3.836,-3.84,-3.8405,-3.8411,-3.8514,-3.8417,-3.8421,-3.8424,-3.8636,-3.864,-3.8643,0,0,0,0,0,0,-3.8305,-3.8315,-3.8395,-3.8355,-3.8364,-3.8358,-3.8384,-3.8381,-3.8396,-3.8395,-3.8393,-3.8381,-3.8398,-3.8405,-3.8467,-3.8514,-3.8423,-3.8427,-3.8632,-3.8637,-3.8642,-3.8718,0,0,0,0,0,0,-3.8302,-3.8315,-3.8346,-3.8356,-3.8366,-3.845,-3.8387,-3.8384,-3.8403,-3.8396,-3.841,-3.8409,-3.8396,-3.8461,-3.8472,-3.8518,-3.843,-3.8628,-3.8634,-3.864,-3.8711,-3.8725,-3.8736,0,0,0,0,0,-3.8298,-3.8366,-3.8348,-3.8358,-3.8406,-3.8453,-3.8459,-3.8442,-3.8407,-3.8439,-3.8439,-3.8409,-3.8507,-3.8468,-3.8479,-3.8528,-3.8625,-3.8632,-3.864,-3.8705,-3.8722,-3.8736,0,0,0,0,0,0,-3.8361,-3.8366,-3.8347,-3.842,-3.8436,-3.8443,-3.8483,-3.846,-3.8487,-3.848,-3.8458,-3.8462,-3.8529,-3.8534,-3.8491,-3.8612,-3.856,-3.857,-3.8606,-3.8622,-3.8634,-3.8633,-3.8434,0,0,0,0,0,-3.8383,-3.8421,-3.8423,-3.8487,-3.8497,-3.8489,-3.8509,-3.8495,-3.8511,-3.8518,-3.8522,-3.854,-3.8575,-3.8598,-3.863,-3.8711,-3.8715,-3.875,-3.8762,-3.8773,-3.8782,-3.8829,-3.8845,-3.8668,-3.8668,-3.8667,0,0,-3.843,-3.8437,-3.8462,-3.85,-3.8512,-3.8552,-3.8495,-3.8539,-3.857,-3.8525,-3.8584,-3.8588,-3.8607,-3.8679,-3.8711,-3.8686,-3.8832,-3.8782,-3.879,-3.8794,-3.8838,-3.8855,-3.887,-3.8673,-3.8672,-3.8671,0,0,-3.8536,-3.8544,-3.86,-3.8613,-3.8631,-3.8626,-3.8639,-3.865,-3.8651,-3.8711,-3.8678,-3.8714,-3.8774,-3.8789,-3.8805,-3.8919,-3.8894,-3.893,-3.8997,-3.9042,-3.9056,-3.9069,-3.9112,-3.9128,-3.8939,-3.8939,-3.894,0,-3.8592,-3.8651,-3.8631,-3.868,-3.8698,-3.8659,-3.8717,-3.873,-3.8758,-3.8772,-3.8742,-3.8819,-3.8828,-3.8905,-3.8934,-3.8946,-3.8963,-3.8929,-3.9056,-3.9068,-3.9079,-3.9121,-3.9137,-3.8944,-3.8943,-3.8943,-3.8943,0,-3.872,-3.8762,-3.8805,-3.8834,-3.8857,-3.8909,-3.8899,-3.8925,-3.8909,-3.8907,-3.897,-3.898,-3.9014,-3.9031,-3.9015,-3.9107,-3.9091,-3.9059,-3.9007,-3.9101,-3.914,-3.9155,-3.895,-3.8949,-3.8947,-3.8946,0,0,-3.8867,-3.8886,-3.8902,-3.8916,-3.8934,-3.8966,-3.9018,-3.9052,-3.9076,-3.9096,-3.9141,-3.9193,-3.9164,-3.9182,-3.9168,-3.9208,-3.9302,-3.9171,-3.9171,-3.9198,-3.9407,-3.9433,-3.9452,-3.9284,-3.9287,-3.9289,-3.9406,0,-3.8975,-3.9064,-3.9049,-3.9136,-3.9176,-3.914,-3.9185,-3.9202,-3.9202,-3.9236,-3.9236,-3.9275,-3.9232,-3.9243,-3.928,-3.9282,-3.9344,-3.9273,-3.9327,-3.9329,-3.9326,-3.9471,-3.9498,-3.9609,-3.9421,-3.9424,-3.9425,0,-3.9113,-3.9141,-3.9232,-3.9246,-3.9262,-3.9303,-3.9334,-3.9367,-3.9386,-3.9383,-3.9404,-3.9384,-3.9437,-3.9383,-3.9456,-3.9409,-3.943,-3.9434,-3.9438,-3.9444,-3.9385,-3.9484,-3.9643,-3.9661,-3.9448,-3.9447,-3.9445,0,-3.9216,-3.9274,-3.9337,-3.935,-3.9367,-3.9397,-3.9406,-3.9421,-3.9444,-3.9471,-3.9486,-3.9519,-3.9538,-3.9565,-3.9555,-3.9516,-3.9632,-3.9576,-3.9633,-3.9634,-3.9661,-3.966,-3.9828,-3.967,-3.967,-3.967,-3.9669,0,-3.9339,-3.9397,-3.9384,-3.9423,-3.9487,-3.9469,-3.9534,-3.9538,-3.9553,-3.9593,-3.9563,-3.9602,-3.9585,-3.9623,-3.9614,-3.9679,-3.9687,-3.9688,-3.9685,-3.9692,-3.9692,-3.9707,-3.97,-3.9674,-3.9673,-3.9672,-3.9672,0,-3.9465,-3.9458,-3.9525,-3.9536,-3.954,-3.9588,-3.9598,-3.9635,-3.9633,-3.9684,-3.9695,-3.9692,-3.9736,-3.9728,-3.9775,-3.977,-3.9851,-3.9838,-3.9845,-3.9843,-3.9902,-3.9898,-4.0088,-4.0113,-3.9936,-3.9938,-3.9939,0,-3.9546,-3.959,-3.9606,-3.9631,-3.9643,-3.9683,-3.9706,-3.969,-3.9716,-3.9742,-3.9777,-3.9817,-3.9849,-3.992,-3.9923,-3.996,-3.9949,-4.0013,-3.9955,-3.9961,-3.9954,-3.9953,-3.9958,-4.0026,-4.0028,-4.0029,-4.0031,0,-3.9691,-3.9686,-3.972,-3.9755,-3.9784,-3.981,-3.9833,-3.9855,-3.9842,-3.9872,-3.9916,-3.9941,-3.999,-4.0032,-4.0067,-4.0076,-4.0053,-4.0049,-4.0065,-4.0073,-4.0077,-4.0079,-3.988,-4.0045,-4.0044,-4.0043,-4.0042,-4.0041,-3.9799,-3.9837,-3.9856,-3.9896,-3.9912,-3.9935,-3.9972,-3.9975,-4.0011,-4.005,-4.0039,-4.009,-4.0109,-4.0154,-4.0168,-4.0208,-4.0185,-4.0206,-4.0213,-4.0219,-4.0228,-4.0068,-4.0214,-4.0214,-4.0213,-4.0213,-4.0213,0,-3.9945,-3.9956,-3.9993,-4.0027,-4.006,-4.0033,-4.0058,-4.0087,-4.0133,-4.0153,-4.0185,-4.0238,-4.0278,-4.0285,-4.0324,-4.0355,-4.0346,-4.0367,-4.0365,-4.0369,-4.0245,-4.0229,-4.0374,-4.0374,-4.0374,-4.0374,-4.0374,-4.0374,-4.0026,-4.0091,-4.0088,-4.0161,-4.0171,-4.0221,-4.0238,-4.026,-4.0277,-4.0336,-4.037,-4.0374,-4.039,-4.043,-4.0467,-4.0468,-4.0485,-4.0511,-4.0508,-4.0393,-4.0377,-4.0362,-4.0347,-4.0514,-4.0514,-4.0629,-4.063,-4.0631]},{"header":{"parameterUnit":"m.s-1","parameterCategory":1,"la1":30.2991,"la2":30.254,"lo1":-89.0895,"lo2":-89.0444,"dy":0.0017,"dx":0.0017,"nx":28,"ny":28,"refTime":"2023-09-29T03:00:00:Z","depth":0,"parameterNumber":3,"parameterNumberName":"V-component_of_WINDS"},"data":[0,0,0,0,0,0,0,0,0,0,0,0,0,0,0,0,0,0,0,0,0,0,0,0,0,0,0,0,0,0,0,0,0,0,0,0,0,0,0,0,0,0,0,0,0,0,0,0,0,0,0,0,0,0,0,0,0,0,-1.9755,-1.9755,0,-1.9755,-1.9755,-1.9755,-1.9715,-1.9714,-1.9713,-1.9712,-1.9713,-1.9714,-1.9715,0,0,0,0,0,0,0,0,0,0,0,0,0,-1.9718,-1.9719,-1.9755,-1.9755,-1.9755,-1.9755,-1.9755,-1.9755,-1.9715,-1.9714,-1.9712,-1.9711,-1.9713,-1.9714,-1.9715,0,0,0,0,0,0,0,0,0,0,0,0,0,-1.9728,-1.9719,-1.9754,-1.9734,-1.9733,-1.9755,-1.9755,-1.9755,-1.9715,-1.9714,-1.9712,-1.971,-1.9712,-1.9714,-1.9715,-1.9758,0,0,-1.972,-1.9721,0,0,0,0,0,0,0,0,-1.9727,-1.9729,-1.9737,-1.9736,-1.9734,-1.9733,-1.9743,-1.9756,-1.9716,-1.9722,-1.9711,-1.971,-1.9721,-1.9722,-1.9726,-1.9758,-1.9758,-1.972,-1.9721,-1.9722,-1.9722,0,0,0,0,0,0,0,-1.9727,-1.9729,-1.9755,-1.9738,-1.9735,-1.9725,-1.9725,-1.9745,-1.9731,-1.9721,-1.9718,-1.9719,-1.972,-1.9724,-1.9725,-1.9758,-1.972,-1.9722,-1.9723,-1.9723,-1.9824,-1.9826,0,0,0,0,0,0,-1.9729,-1.9729,-1.9755,-1.9755,-1.9726,-1.9727,-1.9727,-1.9735,-1.973,-1.9728,-1.972,-1.9717,-1.9722,-1.9724,-1.9725,-1.9774,-1.9722,-1.9724,-1.9724,-1.9822,-1.9824,-1.9826,0,0,0,0,0,0,-1.9728,-1.9731,-1.9755,-1.9741,-1.9743,-1.973,-1.9739,-1.9736,-1.974,-1.973,-1.9727,-1.9727,-1.9721,-1.9723,-1.975,-1.9774,-1.9724,-1.9726,-1.982,-1.9823,-1.9825,-1.9873,0,0,0,0,0,0,-1.9727,-1.9731,-1.9747,-1.9742,-1.9744,-1.978,-1.9741,-1.9737,-1.9743,-1.9739,-1.9736,-1.9733,-1.972,-1.9748,-1.9751,-1.9775,-1.9727,-1.9818,-1.9822,-1.9825,-1.9869,-1.9877,-1.9884,0,0,0,0,0,-1.9726,-1.9761,-1.9748,-1.9752,-1.9764,-1.9781,-1.9782,-1.9766,-1.9745,-1.9761,-1.9754,-1.9734,-1.977,-1.9751,-1.9755,-1.9779,-1.9817,-1.9821,-1.9824,-1.9866,-1.9876,-1.9883,0,0,0,0,0,0,-1.9771,-1.976,-1.9746,-1.978,-1.9782,-1.9774,-1.9794,-1.9776,-1.9784,-1.978,-1.9759,-1.9759,-1.9789,-1.9787,-1.9765,-1.982,-1.979,-1.9795,-1.982,-1.9829,-1.9836,-1.9836,-1.9728,0,0,0,0,0,-1.9784,-1.9799,-1.9789,-1.982,-1.9822,-1.9808,-1.9815,-1.9802,-1.9803,-1.9803,-1.9798,-1.98,-1.9812,-1.982,-1.983,-1.9868,-1.9867,-1.9887,-1.9894,-1.99,-1.9905,-1.9925,-1.9933,-1.9839,-1.9839,-1.9839,0,0,-1.9813,-1.9809,-1.982,-1.9829,-1.9829,-1.9844,-1.9809,-1.9827,-1.9838,-1.9806,-1.9831,-1.9827,-1.9828,-1.986,-1.9874,-1.9859,-1.993,-1.9905,-1.991,-1.9911,-1.993,-1.9938,-1.9946,-1.9842,-1.9841,-1.9841,0,0,-1.9874,-1.9872,-1.9898,-1.9898,-1.9898,-1.9888,-1.9894,-1.9889,-1.9885,-1.991,-1.9886,-1.9899,-1.992,-1.9921,-1.9925,-1.9985,-1.9966,-1.9988,-2.0026,-2.0045,-2.0053,-2.0059,-2.0081,-2.0089,-1.9993,-1.9993,-1.9993,0,-1.991,-1.9933,-1.9913,-1.9933,-1.9938,-1.9908,-1.9934,-1.9935,-1.9939,-1.9943,-1.9925,-1.9951,-1.9949,-1.9981,-1.9996,-2.0,-2.0006,-1.9989,-2.0053,-2.006,-2.0065,-2.0086,-2.0094,-1.9996,-1.9995,-1.9995,-1.9995,0,-1.9977,-1.9993,-2.0014,-2.0017,-2.0024,-2.0047,-2.0031,-2.004,-2.0026,-2.0018,-2.0044,-2.004,-2.0049,-2.0056,-2.0043,-2.0086,-2.0077,-2.0057,-2.0027,-2.0078,-2.0096,-2.0104,-2.0,-1.9999,-1.9998,-1.9997,0,0,-2.0067,-2.0059,-2.0067,-2.0068,-2.0065,-2.0077,-2.0098,-2.0106,-2.0115,-2.0118,-2.0135,-2.0153,-2.0134,-2.0138,-2.0125,-2.0142,-2.0189,-2.0119,-2.0119,-2.0133,-2.0237,-2.0253,-2.0262,-2.0177,-2.0178,-2.0179,-2.0237,0,-2.0126,-2.0162,-2.0145,-2.0182,-2.0197,-2.0168,-2.0187,-2.0187,-2.018,-2.0191,-2.0183,-2.0196,-2.017,-2.0172,-2.0188,-2.018,-2.021,-2.0176,-2.0193,-2.0194,-2.0195,-2.0272,-2.0289,-2.0344,-2.0245,-2.0246,-2.0247,0,-2.02,-2.0206,-2.0245,-2.0239,-2.0244,-2.0261,-2.0267,-2.0278,-2.0277,-2.0271,-2.0275,-2.0257,-2.0277,-2.0247,-2.0274,-2.0251,-2.0257,-2.0254,-2.0256,-2.0258,-2.0224,-2.0277,-2.0361,-2.037,-2.0258,-2.0257,-2.0256,0,-2.0263,-2.028,-2.0305,-2.0307,-2.03,-2.0313,-2.031,-2.0308,-2.0314,-2.0319,-2.0323,-2.033,-2.0335,-2.0341,-2.0326,-2.0305,-2.0356,-2.0324,-2.0351,-2.0352,-2.0364,-2.0364,-2.0452,-2.0367,-2.0367,-2.0367,-2.0366,0,-2.0331,-2.0356,-2.0333,-2.0349,-2.0376,-2.0356,-2.0383,-2.0378,-2.0376,-2.039,-2.0366,-2.038,-2.0359,-2.037,-2.0359,-2.0383,-2.0385,-2.0381,-2.0378,-2.0384,-2.0384,-2.0388,-2.0384,-2.0369,-2.0368,-2.0368,-2.0368,0,-2.0406,-2.0391,-2.0417,-2.0408,-2.0406,-2.0427,-2.0419,-2.0433,-2.0424,-2.0442,-2.0446,-2.0431,-2.0444,-2.0429,-2.044,-2.0432,-2.0466,-2.0457,-2.0466,-2.0464,-2.0493,-2.049,-2.0586,-2.0598,-2.0505,-2.0506,-2.0507,0,-2.0451,-2.0469,-2.0462,-2.0469,-2.0468,-2.0481,-2.0487,-2.0467,-2.0474,-2.0474,-2.0489,-2.0499,-2.0506,-2.0528,-2.0519,-2.0527,-2.0518,-2.0551,-2.0519,-2.0525,-2.0519,-2.0519,-2.052,-2.0558,-2.0559,-2.056,-2.0561,0,-2.0532,-2.0524,-2.0533,-2.0539,-2.0546,-2.0551,-2.0553,-2.0561,-2.054,-2.0549,-2.0561,-2.0567,-2.0578,-2.0589,-2.0595,-2.0593,-2.0574,-2.0571,-2.0578,-2.0584,-2.0589,-2.0587,-2.0485,-2.0569,-2.0568,-2.0567,-2.0567,-2.0567,-2.0593,-2.0608,-2.0606,-2.0616,-2.0616,-2.0618,-2.0631,-2.0623,-2.0633,-2.064,-2.0628,-2.0643,-2.0642,-2.0647,-2.0647,-2.0659,-2.0645,-2.0655,-2.0657,-2.066,-2.0665,-2.0587,-2.066,-2.066,-2.0659,-2.0659,-2.0659,0,-2.0674,-2.067,-2.068,-2.0684,-2.0692,-2.0673,-2.0674,-2.0683,-2.0696,-2.0696,-2.0704,-2.0718,-2.0728,-2.0719,-2.0727,-2.0738,-2.073,-2.0741,-2.074,-2.074,-2.0677,-2.067,-2.0748,-2.0748,-2.0748,-2.0748,-2.0748,-2.0748,-2.0717,-2.0741,-2.0732,-2.0756,-2.0752,-2.0767,-2.0769,-2.0772,-2.0771,-2.0788,-2.0796,-2.079,-2.0786,-2.0793,-2.0802,-2.0799,-2.0803,-2.0818,-2.0812,-2.0753,-2.0745,-2.0736,-2.073,-2.0819,-2.0819,-2.0875,-2.0875,-2.0875]}]]